EW4169 Weather Reports


time (UTC)temp
C
wind
direction
speed
KPH
gust
KPH
rain 1hr
cm
rain 24hr
cm
rain mn
cm
humidity
%
barometer
mb
20260503200047 12 231 16.1 33.8 0.00 0.00 0.00 40 1013.2
20260503194523 12 272 14.5 29.0 0.00 0.00 0.00 41 1013.3
20260503193049 12 295 17.7 32.2 0.00 0.00 0.00 38 1013.5
20260503191530 11 262 17.7 37.0 0.00 0.00 0.00 42 1013.7
20260503190011 12 275 20.9 33.8 0.00 0.00 0.00 41 1013.9
20260503184543 11 264 11.3 29.0 0.00 0.00 0.00 41 1013.9
20260503183016 11 273 16.1 27.4 0.00 0.00 0.00 42 1014.1
20260503181538 11 257 12.9 30.6 0.00 0.00 0.00 42 1014.2
20260503180020 11 269 12.9 32.2 0.00 0.00 0.00 46 1014.2
20260503174556 11 266 11.3 24.1 0.00 0.00 0.00 45 1014.4
20260503173023 10 258 17.7 29.0 0.00 0.00 0.00 46 1014.4
20260503171557 10 275 16.1 30.6 0.00 0.00 0.00 43 1014.6
20260503081513 1 235 1.6 11.3 0.00 0.00 0.00 73 1014.6
20260503071521 1 293 8.0 14.5 0.00 0.00 0.00 72 1014.2
20260503070113 2 289 4.8 16.1 0.00 0.00 0.00 72 1014.2
20260503054546 2 280 6.4 12.9 0.00 0.03 0.00 68 1014.3
20260503053022 2 278 1.6 8.0 0.00 0.03 0.00 69 1014.3
20260503051548 3 279 3.2 6.4 0.00 0.03 0.00 67 1014.4
20260503050024 3 274 8.0 16.1 0.00 0.05 0.00 65 1014.5
20260503044544 3 275 11.3 19.3 0.00 0.05 0.00 66 1014.4
20260503043023 3 287 8.0 14.5 0.00 0.05 0.00 66 1014.4
20260503041545 3 290 6.4 11.3 0.00 0.05 0.00 65 1014.4
20260503040043 3 264 0.0 6.4 0.00 0.38 0.05 66 1014.4
20260503034514 3 236 1.6 8.0 0.00 0.38 0.05 67 1014.5
20260503033040 3 249 6.4 12.9 0.00 0.38 0.05 66 1014.6
20260503031600 3 239 1.6 9.7 0.00 0.38 0.05 68 1014.7
20260503030035 4 275 3.2 16.1 0.00 0.41 0.05 69 1014.8
20260503024510 4 280 9.7 17.7 0.00 0.41 0.05 69 1014.8
20260503023055 4 255 6.4 12.9 0.00 0.41 0.05 71 1014.9
20260503021525 4 252 3.2 12.9 0.00 0.41 0.05 71 1015.0
20260503020012 4 255 3.2 16.1 0.00 0.41 0.05 70 1014.9
20260503014547 4 222 4.8 11.3 0.00 0.41 0.05 70 1014.7
20260503013014 4 249 6.4 9.7 0.00 0.41 0.05 74 1014.7
20260503011537 4 265 6.4 11.3 0.00 0.41 0.05 77 1014.7
20260503010011 4 250 4.8 11.3 0.00 0.43 0.05 79 1014.4
20260503004533 4 251 3.2 9.7 0.00 0.43 0.05 78 1014.3
20260503003012 4 273 3.2 17.7 0.00 0.43 0.05 75 1014.0
20260503001532 5 257 9.7 17.7 0.00 0.43 0.05 78 1014.1
20260503000014 5 231 3.2 8.0 0.00 0.43 0.05 78 1014.0
20260502234538 5 248 6.4 12.9 0.00 0.43 0.05 76 1013.9
20260502233019 5 243 3.2 12.9 0.00 0.43 0.05 75 1013.8
20260502231505 5 274 4.8 11.3 0.00 0.43 0.05 74 1013.7
20260502230028 5 284 4.8 16.1 0.00 0.43 0.05 73 1013.7
20260502224515 5 281 4.8 16.1 0.00 0.43 0.05 73 1013.6
20260502223056 6 277 4.8 11.3 0.00 0.43 0.05 73 1013.5
20260502221521 6 300 9.7 17.7 0.00 0.43 0.05 71 1013.4
20260502220056 6 269 9.7 14.5 0.00 0.48 0.05 72 1013.4
20260502214613 6 272 6.4 11.3 0.00 0.48 0.05 75 1013.4
20260502213012 6 355 1.6 9.7 0.00 0.48 0.05 79 1013.4
20260502211536 5 288 8.0 12.9 0.00 0.48 0.05 78 1013.3
20260502210028 5 264 8.0 12.9 0.00 0.56 0.05 78 1013.2
20260502204543 5 278 3.2 6.4 0.00 0.56 0.05 79 1013.3
20260502203020 5 285 11.3 17.7 0.00 0.56 0.05 76 1013.3
20260502201620 5 277 8.0 14.5 0.00 0.56 0.05 75 1013.4
20260502201501 6 278 8.0 17.7 0.00 0.56 0.05 76 1013.4